Back to catalog

STARLINK-35074

AliveCommunicationsVLEO
NORAD 65422·PAYLOAD·🇺🇸 United States

Launched Aug 31, 2025 from Cape Canaveral Space Force Station

Loading…

Next Passes (next 24 hours)

TLE

FreshSource: CelesTrak SupGP

Epoch: Sep 14, 2026, 15:33 UTC

1 65422C 25192U   26257.64840278 -.00048283  00000+0 -14264-2 0  2571
2 65422  53.1588  72.8304 0001145  95.4819 145.4775 15.34416444    12

Track STARLINK-35074 in real time with AllMySat

Download on the App Store